Tracking 27422 objects as of 30-May-2023
HD Live streaming from Space Station
objects crossing your sky now

FENGYUN 1C DEB

Track FENGYUN 1C DEB now!
10-day predictions


NORAD ID: 31297
Int'l Code: 1999-025BPF
Perigee: 620.0 km
Apogee: 837.1 km
Inclination: 98.9 °
Period: 99.2 minutes
Semi major axis: 7099 km
RCS: 0.0028 m2 (small)
Launch date: May 10, 1999
Source: People's Republic of China (PRC)
Launch site: Taiyaun Space Center, China (TSC)

Note: This is SATELLITE DEBRIS
Your satellite tracking list
Your tracking list is empty




NASA's NSSDC Master Catalog

Two Line Element Set (TLE):
1 31297U 99025BPF 23149.93557822  .00001085  00000-0  24682-3 0  9996
2 31297  98.9209 216.6599 0152898  52.3760 120.1285 14.51287406859194
Source of the keplerian elements: AFSPC